Stations météo

Publicité
Abbeville, France (7005): Température de l'air & dewpoint: 23.06.2017 05:00:00 - 29.06.2017 05:00:00 (CEST)Abbeville, France (7005): Température de l'air 5cm: 23.06.2017 05:00:00 - 29.06.2017 05:00:00 (CEST)Abbeville, France (7005): Température de l'air -20cm & Température de l'air -100cm: 23.06.2017 05:00:00 - 29.06.2017 05:00:00 (CEST)Abbeville, France (7005): Vitesse du vent & gusts: 23.06.2017 05:00:00 - 29.06.2017 05:00:00 (CEST)Abbeville, France (7005): Direction du vent: 23.06.2017 05:00:00 - 29.06.2017 05:00:00 (CEST)Abbeville, France (7005): reduced air pressure: 23.06.2017 05:00:00 - 29.06.2017 05:00:00 (CEST)Abbeville, France (7005): visibility: 23.06.2017 05:00:00 - 29.06.2017 05:00:00 (CEST)Abbeville, France (7005): Ensoleillement: 23.06.2017 05:00:00 - 29.06.2017 05:00:00 (CEST)Abbeville, France (7005): Quantités de précipitations: 23.06.2017 05:00:00 - 29.06.2017 05:00:00 (CEST)
Date & Time tt [°C] td [°C] tt 5cm [°C] tt -20cm [°C] tt -100cm [°C] ff [km/h] ff [knt] fx [km/h] fx [knt] dd ppp [hPa] vv [km] sd [min] rr [mm]
29.06.2017 05:00:00 14,2 12,9 13,7 18,6 16,4 9 5 20 11 SW 996,0 20 0 0,0
29.06.2017 04:00:00 14,2 13,2 13,9 18,7 16,4 12 6 30 16 WSW 995,9 20 0 0,0
29.06.2017 03:00:00 14,6 13,8 14,4 18,8 16,4 16 9 29 16 WSW 995,9 8 0 0,8
29.06.2017 02:00:00 15,2 14,4 15,0 18,9 16,4 13 7 21 11 WSW 996,1 2,8 0 0,4
29.06.2017 01:00:00 15,7 14,4 15,4 19,0 16,4 4 2 8 5 SW 996,2 7 0 0,0
29.06.2017 00:00:00 15,9 14,1 15,7 19,1 16,4 5 3 11 6 WSW 996,5 19 0 0,0
28.06.2017 23:00:00 16,0 14,2 15,8 19,1 16,4 8 4 14 8 WSW 996,8 20 0 0,0
28.06.2017 22:00:00 16,2 14,0 16,1 19,2 16,4 10 6 22 12 W 996,4 20 22 0,0
28.06.2017 21:00:00 16,7 14,3 16,7 19,2 16,4 15 8 22 12 W 996,3 20 11 0,0
28.06.2017 20:00:00 17,2 15,2 16,7 19,2 16,4 13 7 20 11 NW 996,1 19 28 0,2
28.06.2017 19:00:00 17,0 15,0 16,8 19,0 16,4 13 7 23 12 WNW 996,1 20 0 0,2
28.06.2017 18:00:00 18,6 15,1 20,1 18,9 16,4 15 8 23 12 WNW 996,0 20 8 0,0
28.06.2017 17:00:00 20,1 15,3 22,7 18,6 16,4 12 6 24 13 WNW 996,3 30 30 0,0
28.06.2017 16:00:00 20,3 16,3 21,3 18,4 16,4 12 7 20 11 NW 996,4 30 22 0,0
28.06.2017 15:00:00 19,2 14,7 20,4 18,2 16,4 8 4 24 13 W 997,2 30 25 0,0
28.06.2017 14:00:00 18,0 14,5 19,5 18,2 16,4 16 9 27 15 WSW 997,8 30 0 0,0
28.06.2017 13:00:00 16,9 14,7 16,9 18,2 16,4 12 6 24 13 SW 998,2 15 0 0,0
28.06.2017 12:00:00 16,4 14,4 16,9 18,2 16,4 13 7 28 15 WSW 998,1 15 0 0,0
28.06.2017 11:00:00 16,2 14,9 15,6 18,3 16,4 13 7 29 16 SW 998,1 10 0 0,0
28.06.2017 10:00:00 15,4 14,8 15,4 18,4 16,4 16 9 32 17 WSW 998,1 10 0 0,0
28.06.2017 09:00:00 15,5 14,9 15,3 18,4 16,4 18 10 32 17 WSW 998,1 3,5 0 0,0
28.06.2017 08:00:00 15,3 14,8 15,3 18,6 16,4 17 9 30 16 WSW 998,3 6 0 0,0
28.06.2017 07:00:00 15,5 15,0 15,4 18,6 16,4 19 11 33 18 WSW 998,2 4,0 0 0,0
28.06.2017 06:00:00 15,9 15,4 15,8 18,7 16,4 12 7 24 13 WSW 998,0 2,0 0 0,0
28.06.2017 05:00:00 16,1 15,6 15,9 18,8 16,4 16 8 27 15 WSW 998,2 3,5 0 0,0
28.06.2017 04:00:00 16,2 15,7 16,1 18,9 16,4 15 8 22 12 WSW 998,5 2,0 0 0,0
28.06.2017 03:00:00 16,2 15,7 16,2 19,0 16,4 13 7 20 11 WSW 998,8 1,5 0 0,8
28.06.2017 02:00:00 16,3 15,8 16,2 19,1 16,4 10 5 14 8 WSW 999,5 0,7 0 0,0
28.06.2017 01:00:00 16,4 15,9 16,3 19,2 16,4 9 5 14 8 WSW 1000,3 0,8 0 0,0
28.06.2017 00:00:00 16,5 16,0 16,0 19,2 16,3 8 4 11 6 NNW 1000,5 1,1 0 0,0
27.06.2017 23:00:00 16,5 15,9 16,2 19,4 16,4 7 4 12 7 NW 1001,0 2,0 0 0,6
27.06.2017 22:00:00 16,7 16,1 16,5 19,4 16,3 10 5 20 11 NW 1001,3 2,8 0 1,4
27.06.2017 21:00:00 17,4 16,8 17,3 19,5 16,4 12 6 22 12 W 1002,0 3,0 0 0,2
27.06.2017 20:00:00 18,1 17,5 17,4 19,6 16,4 9 5 16 9 NW 1002,0 4,4 0 1,0
27.06.2017 19:00:00 17,5 16,5 17,4 19,6 16,4 14 7 18 10 NW 1002,6 4,1 0 1,9
27.06.2017 18:00:00 17,9 16,4 17,5 19,5 16,4 11 6 22 12 WNW 1003,5 12 0 1,2
27.06.2017 17:00:00 18,9 16,7 17,7 19,4 16,4 11 6 24 13 WNW 1003,9 10 0 1,6
27.06.2017 16:00:00 20,9 17,3 21,7 19,2 16,4 13 7 23 12 NW 1004,1 30 0 0,0
27.06.2017 15:00:00 22,9 16,7 23,2 18,9 16,4 13 7 21 11 NNW 1004,5 40 9 0,0
27.06.2017 14:00:00 25,3 15,6 31,0 18,6 16,3 4 2 13 7 NE 1005,2 20 36 0,0
27.06.2017 13:00:00 23,9 15,1 26,5 18,4 16,4 4 2 13 7 SSE 1006,3 30 0 0,0
27.06.2017 12:00:00 22,4 14,3 25,7 18,3 16,4 6 3 14 8 SE 1006,9 30 18 0,0
27.06.2017 11:00:00 21,1 13,8 20,0 18,2 16,3 8 4 18 10 SE 1007,5 30 13 0,0
27.06.2017 10:00:00 17,5 12,2 16,8 18,3 16,4 13 7 21 11 E 1008,1 30 0 0,0
27.06.2017 09:00:00 15,7 11,1 15,7 18,4 16,4 11 6 18 10 E 1008,5 40 0 0,0
27.06.2017 08:00:00 15,0 11,0 15,1 18,5 16,4 8 4 11 6 E 1008,9 40 0 0,0
27.06.2017 07:00:00 14,5 10,1 13,9 18,7 16,4 8 4 13 7 E 1008,8 40 0 0,0
27.06.2017 06:00:00 14,2 9,6 13,7 18,9 16,4 7 4 16 9 ESE 1009,2 20 0 0,0
27.06.2017 05:00:00 15,0 9,6 14,6 19,0 16,4 13 7 23 12 E 1009,4 20 0 0,0
27.06.2017 04:00:00 14,9 9,5 14,2 19,2 16,4 12 7 26 14 E 1010,4 20 0 0,0
27.06.2017 03:00:00 14,5 9,3 13,7 19,4 16,4 13 7 25 14 E 1011,0 20 0 0,0
27.06.2017 02:00:00 15,0 9,1 14,3 19,6 16,4 19 10 31 17 ENE 1011,2 20 0 0,0
27.06.2017 01:00:00 15,4 9,7 14,8 19,8 16,4 18 10 34 19 ENE 1011,3 20 0 0,0
27.06.2017 00:00:00 16,0 9,6 15,3 20,0 16,4 20 11 30 16 ENE 1011,6 20 0 0,0
26.06.2017 23:00:00 17,1 9,5 16,3 20,1 16,4 19 10 34 18 ENE 1011,8 20 0 0,0
26.06.2017 22:00:00 18,9 9,9 18,2 20,2 16,4 20 11 35 19 NE 1011,4 20 36 0,0
26.06.2017 21:00:00 21,4 11,1 22,4 20,2 16,4 19 11 30 16 NE 1011,3 20 48 0,0
26.06.2017 20:00:00 24,0 12,9 27,1 20,0 16,4 12 7 23 13 ENE 1011,4 20 60 0,0
26.06.2017 19:00:00 24,3 13,2 28,4 19,9 16,4 12 7 27 15 ENE 1011,4 20 60 0,0
26.06.2017 18:00:00 24,4 13,3 26,0 19,5 16,4 13 7 24 13 NNE 1011,8 20 57 0,0
26.06.2017 17:00:00 23,9 12,8 27,9 19,2 16,4 10 5 22 12 NNE 1012,5 20 57 0,0
26.06.2017 16:00:00 23,6 13,2 26,8 18,8 16,4 11 6 26 14 NE 1012,8 40 53 0,0
26.06.2017 15:00:00 23,1 13,6 24,6 18,5 16,4 11 6 21 11 NE 1013,3 40 42 0,0
26.06.2017 14:00:00 21,0 12,9 23,5 18,2 16,4 8 5 18 10 ENE 1013,9 20 21 0,0
26.06.2017 13:00:00 21,6 13,5 23,5 18,1 16,4 13 7 26 14 NNE 1014,1 30 30 0,0
26.06.2017 12:00:00 19,8 13,3 22,8 17,9 16,4 9 5 14 7 ENE 1014,6 25 0 0,0
26.06.2017 11:00:00 19,6 13,8 21,5 17,8 16,4 5 3 13 7 ENE 1014,5 25 5 0,0
26.06.2017 10:00:00 19,2 14,0 18,1 17,8 16,4 6 4 11 6 NE 1014,0 20 26 0,0
26.06.2017 09:00:00 16,8 13,7 18,5 17,8 16,4 4 2 15 8 NW 1014,6 20 32 0,0
26.06.2017 08:00:00 16,3 14,1 15,6 17,8 16,4 8 4 13 7 W 1014,9 15 50 0,0
26.06.2017 07:00:00 14,8 13,5 14,1 17,9 16,4 4 2 9 5 SSW 1014,8 15 0 0,0
26.06.2017 06:00:00 14,8 13,5 14,2 17,9 16,4 5 3 9 5 SSW 1014,7 15 0 0,0
26.06.2017 05:00:00 15,1 13,6 14,8 18,0 16,4 4 2 15 8 SW 1014,5 18 0 0,0
26.06.2017 04:00:00 15,3 13,7 15,1 18,1 16,4 8 5 19 10 WSW 1014,7 20 0 0,0
26.06.2017 03:00:00 15,5 13,7 15,3 18,2 16,4 11 6 26 14 W 1014,8 20 0 0,0
26.06.2017 02:00:00 15,7 13,5 15,6 18,3 16,4 17 9 34 18 W 1014,9 20 0 0,0
26.06.2017 01:00:00 15,9 13,6 15,5 18,3 16,4 16 9 29 16 W 1015,3 20 0 0,0
26.06.2017 00:00:00 15,6 13,6 14,9 18,4 16,4 14 8 32 18 W 1015,5 20 0 0,0
25.06.2017 23:00:00 16,5 14,0 16,4 18,4 16,4 25 13 45 24 W 1015,3 20 0 0,0
25.06.2017 22:00:00 17,5 14,9 17,4 18,4 16,4 27 15 42 23 W 1015,0 20 0 0,0
25.06.2017 21:00:00 17,9 15,0 18,0 18,4 16,4 24 13 41 22 W 1014,9 20 0 0,0
25.06.2017 20:00:00 18,3 14,2 18,7 18,4 16,4 27 15 53 29 W 1015,0 20 6 0,0
25.06.2017 19:00:00 19,0 14,7 20,0 18,4 16,4 29 15 46 25 W 1015,0 20 0 0,0
25.06.2017 18:00:00 19,7 14,7 21,2 18,3 16,4 24 13 40 22 W 1015,0 20 7 0,0
25.06.2017 17:00:00 19,8 14,4 21,2 18,2 16,4 22 12 36 19 W 1015,4 40 1 0,0
25.06.2017 16:00:00 19,1 13,5 20,1 18,1 16,4 23 12 41 22 W 1015,8 40 0 0,0
25.06.2017 15:00:00 18,0 13,3 19,5 18,0 16,4 27 15 45 24 W 1016,3 40 0 0,0
25.06.2017 14:00:00 17,7 12,6 19,8 18,0 16,4 29 16 48 26 WSW 1016,3 40 0 0,0
25.06.2017 13:00:00 17,6 12,1 19,1 18,0 16,4 29 16 48 26 W 1016,3 40 5 0,0
25.06.2017 12:00:00 18,1 12,8 18,4 18,0 16,4 30 16 50 27 W 1016,0 40 14 0,0
25.06.2017 11:00:00 16,8 12,5 17,5 18,0 16,4 30 16 49 27 W 1015,8 40 12 0,0
25.06.2017 10:00:00 16,3 12,5 17,1 18,0 16,4 25 14 49 26 W 1015,5 20 24 0,0
25.06.2017 09:00:00 16,2 12,7 14,3 18,1 16,4 24 13 40 21 W 1015,0 40 15 0,0
25.06.2017 08:00:00 14,6 13,0 14,1 18,2 16,4 18 10 41 22 WSW 1014,9 6 0 0,0
25.06.2017 07:00:00 14,8 13,3 14,2 18,3 16,4 19 10 35 19 W 1014,7 6 0 0,0
25.06.2017 06:00:00 14,7 13,4 14,3 18,4 16,4 25 13 43 23 W 1014,7 5 0 0,0
25.06.2017 05:00:00 15,2 13,9 14,7 18,4 16,4 21 12 42 23 W 1014,6 20 0 0,0
25.06.2017 04:00:00 15,4 14,3 15,0 18,5 16,4 24 13 41 22 W 1014,6 20 0 0,2
25.06.2017 03:00:00 16,0 15,4 15,8 18,6 16,4 21 11 40 22 W 1014,8 2,7 0 1,2
25.06.2017 02:00:00 16,8 16,0 16,4 18,7 16,5 18 10 33 18 WSW 1014,9 4,5 0 0,4
25.06.2017 01:00:00 16,7 15,7 16,2 18,7 16,4 16 9 34 18 WSW 1015,4 3,2 0 0,2
25.06.2017 00:00:00 17,2 15,0 16,3 18,7 16,4 22 12 35 19 W 1015,9 12 0 0,0
24.06.2017 23:00:00 17,3 14,4 17,1 18,8 16,4 14 8 24 13 W 1016,0 20 0 0,0
24.06.2017 22:00:00 17,8 14,1 17,7 18,8 16,4 17 9 26 14 W 1015,8 20 0 0,0
24.06.2017 21:00:00 18,7 14,2 18,7 18,8 16,4 14 7 26 14 W 1015,8 20 0 0,0
24.06.2017 20:00:00 18,5 14,2 17,4 18,8 16,4 12 7 31 17 W 1016,2 20 0 0,0
24.06.2017 19:00:00 18,2 14,1 18,2 18,8 16,4 21 12 42 23 W 1016,7 15 0 0,0
24.06.2017 18:00:00 18,1 14,2 18,6 18,7 16,4 22 12 35 19 W 1016,8 20 0 0,0
24.06.2017 17:00:00 19,0 14,7 18,0 18,6 16,4 14 7 32 18 WSW 1017,0 40 0 0,0
24.06.2017 16:00:00 19,5 14,5 20,7 18,5 16,4 21 12 33 18 W 1017,4 40 0 0,0
24.06.2017 15:00:00 19,8 13,9 21,4 18,3 16,4 20 11 36 20 W 1017,5 40 0 0,0
24.06.2017 14:00:00 20,3 13,7 22,9 18,2 16,4 20 11 36 20 WSW 1017,6 40 8 0,0
24.06.2017 13:00:00 19,8 13,9 19,8 18,1 16,4 18 10 32 18 W 1017,6 40 2 0,0
24.06.2017 12:00:00 18,4 13,3 19,2 18,1 16,4 18 10 41 22 W 1018,0 40 0 0,0
24.06.2017 11:00:00 17,8 12,7 18,4 18,1 16,4 22 12 42 23 WSW 1018,1 40 0 0,0
24.06.2017 10:00:00 17,3 12,4 17,8 18,1 16,4 24 13 41 22 W 1018,3 40 0 0,0
24.06.2017 09:00:00 17,0 13,1 15,9 18,1 16,4 22 12 39 21 WSW 1018,2 40 19 0,0
24.06.2017 08:00:00 15,7 13,2 15,7 18,2 16,4 14 8 26 14 WSW 1018,1 20 0 0,0
24.06.2017 07:00:00 15,5 12,8 15,2 18,2 16,4 12 6 25 13 WSW 1018,1 40 0 0,0
24.06.2017 06:00:00 15,4 13,1 14,2 18,4 16,4 14 7 30 16 WSW 1018,1 20 0 0,0
24.06.2017 05:00:00 14,2 12,2 11,4 18,5 16,4 11 6 21 11 SW 1018,4 20 0 0,0
24.06.2017 04:00:00 12,6 10,7 11,2 18,6 16,4 8 4 18 10 SSW 1018,8 20 0 0,0
24.06.2017 03:00:00 12,6 10,5 11,2 18,8 16,3 8 4 14 7 SW 1019,1 20 0 0,0
24.06.2017 02:00:00 13,3 11,2 11,7 18,9 16,4 9 5 16 9 SW 1019,4 20 0 0,0
24.06.2017 01:00:00 13,4 11,3 12,1 19,0 16,3 10 5 17 9 SW 1019,7 20 0 0,0
24.06.2017 00:00:00 14,1 11,4 12,3 19,1 16,4 6 4 19 10 SW 1019,8 20 0 0,0
23.06.2017 23:00:00 15,4 12,2 14,3 19,2 16,3 12 6 24 13 WSW 1020,1 20 0 0,0
23.06.2017 22:00:00 16,2 12,4 15,3 19,2 16,3 15 8 37 20 W 1020,2 20 24 0,0
23.06.2017 21:00:00 17,6 12,3 17,8 19,2 16,4 22 12 43 23 W 1020,2 20 5 0,0
23.06.2017 20:00:00 18,1 11,6 18,8 19,2 16,3 23 13 48 26 W 1020,1 20 10 0,0
23.06.2017 19:00:00 19,2 11,5 19,9 19,2 16,3 27 15 50 27 W 1019,9 20 19 0,0
23.06.2017 18:00:00 18,3 10,6 19,8 19,2 16,3 29 16 55 30 W 1020,1 20 3 0,0
23.06.2017 17:00:00 18,4 10,7 20,3 19,1 16,3 31 17 50 27 W 1020,2 40 4 0,0
23.06.2017 16:00:00 18,3 10,6 19,6 19,1 16,3 30 16 48 26 W 1020,5 40 10 0,0
23.06.2017 15:00:00 17,3 10,9 17,8 19,1 16,3 31 17 49 26 W 1020,8 30 0 0,0
23.06.2017 14:00:00 16,4 11,8 17,5 19,1 16,3 29 16 49 26 W 1020,6 30 0 0,0
23.06.2017 13:00:00 16,4 11,1 17,7 19,2 16,3 29 16 45 24 W 1020,6 30 0 0,0
23.06.2017 12:00:00 16,8 11,9 17,1 19,2 16,3 24 13 40 22 WSW 1019,9 30 0 0,0
23.06.2017 11:00:00 16,5 12,1 17,3 19,3 16,3 23 13 41 22 W 1019,6 30 0 0,0
23.06.2017 10:00:00 16,6 12,1 17,2 19,4 16,3 22 12 37 20 W 1018,9 30 0 0,0
23.06.2017 09:00:00 16,2 12,4 16,2 19,5 16,2 18 10 37 20 W 1018,4 20 0 0,0
23.06.2017 08:00:00 16,2 13,5 16,3 19,6 16,3 21 11 32 17 W 1017,9 25 0 0,0
23.06.2017 07:00:00 16,1 14,3 15,9 19,7 16,3 18 10 27 15 W 1017,3 15 0 0,0
23.06.2017 06:00:00 15,9 14,6 14,8 19,8 16,2 14 8 23 12 W 1017,1 15 0 0,0
23.06.2017 05:00:00 15,0 13,7 13,7 19,9 16,2 7 4 15 8 SSW 1016,6 17 0 0,0

tt = Température de l'air
td = dewpoint
tt 5cm = Température de l'air 5cm
tt -20cm = Température de l'air -20cm
tt -100cm = Température de l'air -100cm
ff = Vitesse du vent
fx = gusts
dd = Direction du vent
ppp = reduced air pressure
vv = visibility
sd = Ensoleillement
rr = Quantités de précipitations

stations d'obs. à proximité